OBJECT_NAME,OBJECT_ID,EPOCH,MEAN_MOTION,ECCENTRICITY,INCLINATION,RA_OF_ASC_NODE,ARG_OF_PERICENTER,MEAN_ANOMALY,EPHEMERIS_TYPE,CLASSIFICATION_TYPE,NORAD_CAT_ID,ELEMENT_SET_NO,REV_AT_EPOCH,BSTAR,MEAN_MOTION_DOT,MEAN_MOTION_DDOT SAUDISAT 1C (SO-50),2002-058C,2026-09-12T01:41:55.666752,14.83206442,.00721591,64.5512,220.1340,246.5319,112.8191,0,U,27607,999,27734,.97802283E-4,.68E-5,0 SAUDISAT 2,2004-025F,2026-09-12T06:18:58.338144,14.56724629,.00253429,98.5564,257.5199,31.7773,328.4948,0,U,28371,999,17842,.48129522E-4,.166E-5,0 SAUDISAT 3,2007-012B,2026-09-12T07:12:07.155648,14.71469078,.00136555,98.1538,205.7916,314.5231,45.4859,0,U,31118,999,4055,.36041264E-4,.172E-5,0 PISAT,2016-059B,2026-09-12T06:13:34.117824,14.69120723,.00275392,97.8244,252.0036,288.4502,71.3712,0,U,41784,999,53252,.11491638E-3,.631E-5,0 FLYING LAPTOP,2017-042G,2026-09-12T07:02:12.418656,15.01579794,.00162214,97.4996,47.7012,183.7209,176.3898,0,U,42831,999,49952,.1276033E-3,.1599E-4,0 SALSAT,2020-068K,2026-09-11T23:28:21.147456,15.30885844,.00094697,97.8880,263.4175,9.1845,350.9566,0,U,46495,999,32863,.20261281E-3,.5968E-4,0